GW3250 Weather Reports


time (UTC)temp
F
wind
direction
speed
knots
gust
knots
rain 1hr
in
rain 24hr
in
rain mn
in
humidity
%
barometer
mb
20260506044948 66 204 0.0 0.9 0.00 0.00 0.00 59 1006.9
20260506044446 66 217 0.9 0.9 0.00 0.00 0.00 59 1006.7
20260506043943 66 196 0.9 0.9 0.00 0.00 0.00 57 1006.8
20260506043440 66 213 0.9 0.9 0.00 0.00 0.00 58 1007.0
20260506042938 66 212 0.9 1.7 0.00 0.00 0.00 58 1006.9
20260506042437 66 220 1.7 2.6 0.00 0.00 0.00 56 1006.8
20260506041935 66 215 0.9 1.7 0.00 0.00 0.00 57 1006.9
20260506041432 67 194 1.7 2.6 0.00 0.00 0.00 56 1006.7
20260506040929 67 190 1.7 2.6 0.00 0.00 0.00 56 1007.0
20260506040427 66 213 0.9 1.7 0.00 0.00 0.00 58 1006.8
20260506035923 66 263 1.7 2.6 0.00 0.00 0.00 57 1006.8
20260506035421 66 185 0.9 1.7 0.00 0.00 0.00 57 1006.9
20260506034917 66 227 2.6 3.5 0.00 0.00 0.00 57 1006.8
20260506034414 67 200 0.9 0.9 0.00 0.00 0.00 57 1006.9
20260506033911 67 191 0.0 0.9 0.00 0.00 0.00 56 1006.9
20260506033409 67 215 0.9 0.9 0.00 0.00 0.00 55 1006.7
20260506032905 67 233 2.6 3.5 0.00 0.00 0.00 55 1006.9
20260506032402 67 194 2.6 2.6 0.00 0.00 0.00 54 1006.8
20260506031859 68 233 0.9 0.9 0.00 0.00 0.00 54 1006.6
20260506031356 67 228 3.5 5.2 0.00 0.00 0.00 53 1006.7
20260506030854 68 181 0.9 0.9 0.00 0.00 0.00 53 1006.8
20260506030352 68 225 2.6 3.5 0.00 0.00 0.00 52 1006.8
20260506025848 68 199 3.5 5.2 0.00 0.00 0.00 52 1006.8
20260506025344 68 207 0.9 0.9 0.00 0.00 0.00 53 1006.8
20260506024842 68 139 1.7 1.7 0.00 0.00 0.00 52 1006.8
20260506024338 68 194 1.7 1.7 0.00 0.00 0.00 51 1006.8
20260506023835 69 227 1.7 3.5 0.00 0.00 0.00 48 1006.6
20260506023331 69 216 1.7 2.6 0.00 0.00 0.00 49 1006.9
20260506022828 69 239 3.5 3.5 0.00 0.00 0.00 48 1006.9
20260506022326 70 200 2.6 3.5 0.00 0.00 0.00 48 1006.6
20260506021824 70 232 2.6 3.5 0.00 0.00 0.00 47 1007.0
20260506021321 71 214 2.6 3.5 0.00 0.00 0.00 46 1006.8
20260506020817 70 124 1.7 2.6 0.00 0.00 0.00 48 1006.9
20260506020315 70 282 4.3 9.6 0.00 0.00 0.00 47 1006.5
20260506015813 70 206 0.9 1.7 0.00 0.00 0.00 48 1006.8
20260506015310 70 216 1.7 1.7 0.00 0.00 0.00 47 1006.9
20260506014806 70 171 2.6 2.6 0.00 0.00 0.00 48 1006.7
20260506014303 70 213 1.7 1.7 0.00 0.00 0.00 48 1006.6
20260506013800 70 72 1.7 2.6 0.00 0.00 0.00 46 1006.7
20260506013257 71 106 1.7 1.7 0.00 0.00 0.00 49 1006.5
20260506012754 71 209 6.1 7.8 0.00 0.00 0.00 47 1006.6
20260506012251 71 212 1.7 2.6 0.00 0.00 0.00 46 1006.4
20260506011748 72 241 6.1 7.8 0.00 0.00 0.00 45 1006.4
20260506011244 71 222 3.5 3.5 0.00 0.00 0.00 47 1006.2
20260506010743 72 207 1.7 1.7 0.00 0.00 0.00 47 1006.3
20260506010240 71 229 4.3 5.2 0.00 0.00 0.00 46 1006.2
20260506005737 71 157 0.9 0.9 0.00 0.00 0.00 49 1006.0
20260506005233 71 219 1.7 2.6 0.00 0.00 0.00 47 1006.1
20260506004729 71 230 3.5 3.5 0.00 0.00 0.00 47 1006.0
20260506004227 71 218 1.7 1.7 0.00 0.00 0.00 49 1005.9
20260506003723 71 184 0.9 1.7 0.00 0.00 0.00 49 1005.7
20260506003220 71 227 0.9 0.9 0.00 0.00 0.00 48 1006.0
20260506002715 71 203 2.6 3.5 0.00 0.00 0.00 49 1005.9
20260506002212 72 214 1.7 2.6 0.00 0.00 0.00 48 1005.8
20260506001708 72 195 0.9 0.9 0.00 0.00 0.00 48 1005.8
20260506001206 72 181 0.9 1.7 0.00 0.00 0.00 47 1005.7
20260506000702 71 275 3.5 3.5 0.00 0.00 0.00 48 1005.8
20260506000200 72 197 2.6 3.5 0.00 0.00 0.00 47 1005.8
20260505235657 72 161 0.9 0.9 0.00 0.00 0.00 47 1005.5
20260505235155 72 184 0.9 0.9 0.00 0.00 0.00 46 1005.5
20260505234651 72 154 0.9 1.7 0.00 0.00 0.00 45 1005.4
20260505234149 72 204 0.0 0.9 0.00 0.00 0.00 46 1005.7
20260505233645 73 184 3.5 3.5 0.00 0.00 0.00 44 1005.5
20260505233143 74 222 1.7 1.7 0.00 0.00 0.00 42 1005.5
20260505232640 73 211 4.3 7.0 0.00 0.00 0.00 42 1005.3
20260505232138 74 168 1.7 2.6 0.00 0.00 0.00 42 1005.4
20260505231634 73 217 3.5 5.2 0.00 0.00 0.00 43 1005.2
20260505231133 73 175 0.9 0.9 0.00 0.00 0.00 42 1005.3
20260505230631 74 204 0.0 0.0 0.00 0.00 0.00 43 1005.3
20260505230127 74 241 1.7 2.6 0.00 0.00 0.00 43 1005.2
20260505225623 75 216 0.9 1.7 0.00 0.00 0.00 43 1005.2
20260505225120 75 317 3.5 5.2 0.00 0.00 0.00 41 1005.2
20260505224617 75 243 1.7 2.6 0.00 0.00 0.00 41 1005.0
20260505224114 74 278 4.3 6.1 0.00 0.00 0.00 42 1005.1
20260505223611 74 200 1.7 1.7 0.00 0.00 0.00 44 1005.1
20260505223107 74 224 3.5 5.2 0.00 0.00 0.00 41 1004.8
20260505222604 74 248 2.6 3.5 0.00 0.00 0.00 41 1004.9
20260505222100 75 218 3.5 6.1 0.00 0.00 0.00 41 1005.0
20260505221557 75 206 0.9 0.9 0.00 0.00 0.00 42 1004.8
20260505221053 75 231 4.3 6.1 0.00 0.00 0.00 41 1004.8
20260505220551 75 215 0.0 0.9 0.00 0.00 0.00 40 1004.9
20260505220048 76 210 4.3 6.1 0.00 0.00 0.00 40 1004.8
20260505215546 76 83 1.7 1.7 0.00 0.00 0.00 37 1004.9
20260505215044 76 239 0.9 1.7 0.00 0.00 0.00 37 1005.0
20260505214542 76 219 5.2 7.0 0.00 0.00 0.00 36 1004.7
20260505214038 75 187 2.6 3.5 0.00 0.00 0.00 36 1005.1
20260505213536 76 194 3.5 5.2 0.00 0.00 0.00 35 1004.7
20260505213032 76 179 0.9 1.7 0.00 0.00 0.00 37 1004.5
20260505212529 76 242 4.3 5.2 0.00 0.00 0.00 36 1004.5
20260505212026 76 214 3.5 5.2 0.00 0.00 0.00 35 1004.4
20260505211523 76 227 5.2 7.0 0.00 0.00 0.00 36 1004.3
20260505211020 76 250 2.6 3.5 0.00 0.00 0.00 35 1004.5
20260505210516 76 106 3.5 6.1 0.00 0.00 0.00 35 1004.4
20260505210014 76 207 1.7 3.5 0.00 0.00 0.00 35 1004.4
20260505205512 77 221 2.6 5.2 0.00 0.00 0.00 36 1004.4
20260505205009 77 353 3.5 3.5 0.00 0.00 0.00 34 1004.4
20260505204506 78 200 4.3 5.2 0.00 0.00 0.00 34 1003.9
20260505204003 79 104 1.7 1.7 0.00 0.00 0.00 35 1003.9
20260505203459 80 175 5.2 7.8 0.00 0.00 0.00 32 1003.9
20260505202956 80 211 2.6 3.5 0.00 0.00 0.00 32 1004.3
20260505202453 78 4 3.5 5.2 0.00 0.00 0.00 34 1004.0
20260505201949 78 106 4.3 6.1 0.00 0.00 0.00 33 1003.8
20260505201446 80 285 5.2 7.0 0.00 0.00 0.00 32 1003.9
20260505200944 80 185 5.2 8.7 0.00 0.00 0.00 32 1004.0
20260505200441 80 128 4.3 6.1 0.00 0.00 0.00 32 1004.3
20260505195937 82 200 7.0 11.3 0.00 0.00 0.00 31 1004.2
20260505195434 82 215 4.3 7.0 0.00 0.00 0.00 32 1004.4
20260505194931 82 183 2.6 2.6 0.00 0.00 0.00 33 1004.2
20260505194429 81 201 2.6 3.5 0.00 0.00 0.00 34 1004.6
20260505193928 80 180 1.7 2.6 0.00 0.00 0.00 33 1004.7
20260505193426 82 233 4.3 6.1 0.00 0.00 0.00 32 1004.6
20260505192924 81 186 2.6 2.6 0.00 0.00 0.00 34 1004.7
20260505192422 81 10 4.3 7.0 0.00 0.00 0.00 33 1004.7
20260505191919 79 166 1.7 3.5 0.00 0.00 0.00 33 1004.7
20260505191418 80 308 2.6 2.6 0.00 0.00 0.00 33 1004.7
20260505190915 79 230 4.3 9.6 0.00 0.00 0.00 33 1004.7
20260505190410 79 243 3.5 5.2 0.00 0.00 0.00 36 1004.9
20260505185905 80 205 5.2 8.7 0.00 0.00 0.00 34 1004.9
20260505185403 80 255 3.5 6.1 0.00 0.00 0.00 35 1004.9
20260505184858 79 190 5.2 7.8 0.00 0.00 0.00 37 1005.1
20260505184356 81 291 4.3 6.1 0.00 0.00 0.00 35 1005.3
20260505183853 80 252 3.5 5.2 0.00 0.00 0.00 34 1005.1
20260505183349 80 271 3.5 5.2 0.00 0.00 0.00 36 1005.4
20260505182846 81 254 3.5 6.1 0.00 0.00 0.00 33 1005.2
20260505182343 80 223 5.2 7.0 0.00 0.00 0.00 34 1005.5
20260505181840 81 253 3.5 5.2 0.00 0.00 0.00 34 1005.4
20260505181337 81 211 2.6 3.5 0.00 0.00 0.00 37 1005.2
20260505180833 79 183 5.2 6.1 0.00 0.00 0.00 36 1005.4
20260505180330 79 5 2.6 3.5 0.00 0.00 0.00 38 1005.2
20260505175826 80 274 4.3 5.2 0.00 0.00 0.00 39 1005.2
20260505175323 79 210 4.3 5.2 0.00 0.00 0.00 39 1005.5
20260505174819 79 209 6.1 7.0 0.00 0.00 0.00 39 1005.3
20260505174317 78 191 2.6 2.6 0.00 0.00 0.00 38 1005.3
20260505173813 80 262 5.2 6.1 0.00 0.00 0.00 37 1005.7
20260505173309 80 203 1.7 1.7 0.00 0.00 0.00 38 1005.4
20260505172807 80 237 1.7 2.6 0.00 0.00 0.00 37 1005.5
20260505172306 80 237 4.3 7.0 0.00 0.00 0.00 38 1005.6
20260505171758 80 201 2.6 3.5 0.00 0.00 0.00 37 1005.6
20260505171255 79 233 4.3 7.0 0.00 0.00 0.00 39 1005.8
20260505170752 79 208 3.5 6.1 0.00 0.00 0.00 40 1005.5
20260505170249 81 203 4.3 7.0 0.00 0.00 0.00 40 1005.5
20260505165744 78 244 1.7 2.6 0.00 0.00 0.00 42 1005.6
20260505165240 79 266 5.2 6.1 0.00 0.00 0.00 39 1005.7
20260505164736 78 213 2.6 3.5 0.00 0.00 0.00 41 1005.7
20260505164233 79 148 3.5 6.1 0.00 0.00 0.00 41 1005.9
20260505163732 79 207 1.7 3.5 0.00 0.00 0.00 42 1006.1
20260505163230 78 280 4.3 6.1 0.00 0.00 0.00 43 1006.0
20260505162727 78 225 0.0 0.9 0.00 0.00 0.00 46 1006.0
20260505162224 77 122 3.5 6.1 0.00 0.00 0.00 42 1006.3
20260505161720 78 58 1.7 3.5 0.00 0.00 0.00 44 1006.3
20260505161218 78 234 3.5 7.0 0.00 0.00 0.00 44 1006.4
20260505160715 77 223 2.6 3.5 0.00 0.00 0.00 45 1006.7
20260505160213 77 219 2.6 3.5 0.00 0.00 0.00 46 1006.6
20260505153152 75 197 1.7 2.6 0.00 0.00 0.00 46 1006.8
20260505152649 74 224 2.6 2.6 0.00 0.00 0.00 49 1007.0
20260505152145 74 181 2.6 5.2 0.00 0.00 0.00 49 1006.8
20260505151640 74 174 0.9 0.9 0.00 0.00 0.00 51 1007.2
20260505151138 74 218 2.6 3.5 0.00 0.00 0.00 50 1007.2
20260505150633 74 162 0.9 1.7 0.00 0.00 0.00 52 1006.9
20260505150131 73 266 2.6 3.5 0.00 0.00 0.00 50 1006.8
20260505140559 72 134 1.7 1.7 0.00 0.00 0.00 52 1007.5
20260505125013 66 106 0.9 1.7 0.00 0.00 0.00 63 1007.3
20260505124509 65 172 1.7 2.6 0.00 0.00 0.00 66 1007.3
20260505124006 65 201 0.9 0.9 0.00 0.00 0.00 66 1007.5
20260505123503 64 244 1.7 1.7 0.00 0.00 0.00 67 1007.6
20260505122958 63 327 2.6 5.2 0.00 0.00 0.00 68 1007.3
20260505122456 63 308 1.7 2.6 0.00 0.00 0.00 68 1007.6
20260505121953 62 229 0.9 0.9 0.00 0.00 0.00 71 1007.4
20260505121449 62 131 0.9 1.7 0.00 0.00 0.00 74 1007.4
20260505120945 61 3 1.7 2.6 0.00 0.00 0.00 74 1007.5
20260505120442 61 200 2.6 3.5 0.00 0.00 0.00 72 1007.4
20260505115941 61 162 0.9 0.9 0.00 0.00 0.00 74 1007.4
20260505115438 60 186 0.9 0.9 0.00 0.00 0.00 75 1007.2
20260505114936 60 232 2.6 2.6 0.00 0.00 0.00 73 1007.3
20260505114432 60 221 3.5 5.2 0.00 0.00 0.00 73 1007.3
20260505113928 60 223 1.7 3.5 0.00 0.00 0.00 74 1007.4
20260505113425 59 218 1.7 1.7 0.00 0.00 0.00 74 1007.4
20260505112920 59 213 0.9 0.9 0.00 0.00 0.00 77 1007.7
20260505112418 58 202 0.9 0.9 0.00 0.00 0.00 77 1007.3
20260505111914 57 197 0.0 0.9 0.00 0.00 0.00 78 1007.5
20260505111409 56 206 1.7 1.7 0.00 0.00 0.00 79 1007.4
20260505110906 56 184 0.0 0.0 0.00 0.00 0.00 80 1007.4
20260505110403 54 141 0.9 0.9 0.00 0.00 0.00 84 1007.2
20260505101833 52 133 0.0 0.9 0.00 0.00 0.00 89 1007.0
20260505101328 52 133 0.9 0.9 0.00 0.00 0.00 89 1007.2
20260505100824 54 154 0.9 0.9 0.00 0.00 0.00 88 1007.2
20260505100321 55 154 0.9 0.9 0.00 0.00 0.00 79 1007.2
20260505095817 52 156 1.7 1.7 0.00 0.00 0.00 89 1006.9
20260505095315 51 156 0.9 0.9 0.00 0.00 0.00 93 1006.9
20260505094810 51 156 0.9 0.9 0.00 0.00 0.00 94 1007.0
20260505094308 51 156 0.0 0.0 0.00 0.00 0.00 95 1007.0
20260505093803 51 156 0.9 0.9 0.00 0.00 0.00 96 1007.2
20260505093301 51 156 0.0 0.0 0.00 0.00 0.00 95 1007.0
20260505092757 51 156 0.0 0.9 0.00 0.00 0.00 95 1006.8
20260505092256 52 157 0.0 0.0 0.00 0.00 0.00 93 1006.8
20260505091753 53 155 0.9 0.9 0.00 0.00 0.00 89 1006.9
20260505091251 55 167 0.9 0.9 0.00 0.00 0.00 81 1006.9
20260505090748 55 238 2.6 3.5 0.00 0.00 0.00 72 1007.0
20260505090246 54 212 0.0 0.0 0.00 0.00 0.00 73 1006.7
20260505085743 54 212 0.0 0.0 0.00 0.00 0.00 72 1006.7
20260505085241 54 212 1.7 1.7 0.00 0.00 0.00 72 1006.6
20260505084738 55 212 0.0 0.0 0.00 0.00 0.00 71 1006.3
20260505084238 55 212 0.0 0.9 0.00 0.00 0.00 69 1006.6
20260505083734 55 212 0.0 0.9 0.00 0.00 0.00 70 1006.5
20260505083231 56 212 1.7 1.7 0.00 0.00 0.00 68 1006.3
20260505082726 56 213 0.9 0.9 0.00 0.00 0.00 66 1006.6
20260505082224 55 213 0.9 0.9 0.00 0.00 0.00 67 1006.4
20260505081720 55 213 0.0 0.0 0.00 0.00 0.00 71 1006.6
20260505081217 56 213 0.0 0.0 0.00 0.00 0.00 68 1006.3
20260505080714 56 213 0.0 0.0 0.00 0.00 0.00 66 1006.5
20260505080210 56 121 0.9 0.9 0.00 0.00 0.00 67 1006.3
20260505075706 56 108 0.9 1.7 0.00 0.00 0.00 66 1006.4
20260505075203 56 183 0.0 0.9 0.00 0.00 0.00 66 1006.6
20260505074700 56 144 0.9 1.7 0.00 0.00 0.00 66 1006.4
20260505074157 56 52 0.9 1.7 0.00 0.00 0.00 65 1006.5
20260505073655 57 51 0.9 0.9 0.00 0.00 0.00 65 1006.6
20260505073153 56 22 0.0 0.9 0.00 0.00 0.00 66 1006.6
20260505072648 56 22 0.9 0.9 0.00 0.00 0.00 65 1006.4
20260505072145 56 22 0.0 0.0 0.00 0.00 0.00 66 1006.4
20260505071640 56 359 0.0 0.0 0.00 0.00 0.00 66 1006.7
20260505071138 56 359 0.9 0.9 0.00 0.00 0.00 65 1006.6
20260505070635 56 359 0.0 0.0 0.00 0.00 0.00 64 1006.5
20260505070132 57 358 0.0 0.0 0.00 0.00 0.00 64 1006.4
20260505065627 57 87 0.9 1.7 0.00 0.00 0.00 62 1006.1
20260505065124 56 220 0.0 0.9 0.00 0.00 0.00 62 1006.3
20260505064621 57 245 0.0 0.9 0.00 0.00 0.00 63 1006.5
20260505064120 57 332 1.7 1.7 0.00 0.00 0.00 61 1006.5
20260505063617 57 183 0.9 1.7 0.00 0.00 0.00 61 1006.4
20260505063113 58 266 2.6 3.5 0.00 0.00 0.00 59 1006.4
20260505062609 58 205 1.7 3.5 0.00 0.00 0.00 60 1006.6
20260505062107 58 76 1.7 1.7 0.00 0.00 0.00 60 1006.6
20260505061604 58 229 1.7 1.7 0.00 0.00 0.00 60 1006.5
20260505061102 57 225 3.5 3.5 0.00 0.00 0.00 59 1006.5
20260505060559 58 225 0.9 0.9 0.00 0.00 0.00 60 1006.6
20260505060056 58 207 1.7 1.7 0.00 0.00 0.00 60 1006.5
20260505055551 58 225 2.6 2.6 0.00 0.00 0.00 57 1006.6
20260505055048 58 204 2.6 3.5 0.00 0.00 0.00 58 1006.1
20260505054545 57 201 0.0 0.0 0.00 0.00 0.00 61 1006.6
20260505054043 57 155 0.0 0.9 0.00 0.00 0.00 61 1006.5
20260505053540 57 222 4.3 5.2 0.00 0.00 0.00 59 1006.6
20260505053037 57 220 0.0 0.9 0.00 0.00 0.00 60 1006.5
20260505052533 57 143 1.7 1.7 0.00 0.00 0.00 60 1006.6
20260505052031 58 204 0.0 0.0 0.00 0.00 0.00 60 1006.5
20260505051528 58 232 2.6 2.6 0.00 0.00 0.00 58 1006.9
20260505051026 58 352 2.6 2.6 0.00 0.00 0.00 57 1006.7
20260505050524 58 213 1.7 2.6 0.00 0.00 0.00 58 1006.6